Location: Moscow
(55.7500°N, 37.5830°E)
Time: 04:38:13
(UTC+03:00)

Vanguard 1 - Pass Details

Date: 04 December 2021
Orbit: 652 x 3830 km, 34.2° (Epoch: 21 January)

Event Time Altitude Azimuth Distance (km) Brightness Sun altitude
Rises 21:04:13 0° 168° (SSE) 7,079 - -41.0°
Reaches altitude 10° 21:14:25 10° 143° (SE) 6,652 - -42.3°
Maximum altitude 21:20:41 12° 126° (SE) 6,685 - -43.1°
Drops below altitude 10° 21:27:08 10° 109° (ESE) 6,937 - -43.9°
Sets 21:38:20 0° 85° (E) 7,791 - -45.3°
